Flag for Israel Weather past 2 weeks in Ashdod, Israel

Now
90 °F

Sunny.


Feels Like: 86 °F
Forecast: 63 / 76 °F
Wind: 16 mph from Northwest

Location: Ben Gurion International Airport


UV Index: 7 (High)

Visibility: 10 mi


Pressure: 29.92 "Hg

Humidity: 24%

Dew point: 48 °F

Location of AshdodLocation

Historic Weather in Ashdod

°F

Ashdod temperature yesterday

Maximum temperature yesterday: 93 °F (at 5:20 PM)
Minimum temperature yesterday: 61 °F (at 3:20 AM)
Average temperature yesterday: 76 °F

Past Weeks' High & Low Weather Summary

 TemperatureHumidityPressure
High93 °F (Apr 18, 5:20 PM)88% (Apr 5, 2:50 AM)30.15 "Hg (Apr 5, 2:50 AM)
Low52 °F (Apr 5, 5:50 AM)20% (Apr 6, 11:50 AM)29.80 "Hg (Apr 16, 2:50 AM)
Average69 °F57%29.96 "Hg
* Reported Apr 4 11:20 AM — Apr 19 11:50 AM, Ashdod, Weather by CustomWeather, © 2014

Note: Actual official high and low records may vary slightly from our data, if they occured in-between our weather recording intervals... More about our weather records

Advertising

Historic Weather Conditions — Data for Previous 24 hours

 ConditionsComfort  
Time TempWeatherWind HumidityBarometerVisibility
11:50 AM
Apr 19
91 °FSunny.6 mph23%29.89 "Hg10 mi
11:20 AM88 °FSunny.8 mph25%29.89 "Hg10 mi
10:50 AM86 °FSunny.6 mph29%29.92 "Hg10 mi
10:20 AM84 °FSunny.6 mph31%29.92 "Hg10 mi
9:50 AM82 °FSunny.6 mph30%29.92 "Hg10 mi
9:20 AM82 °FSunny.6 mph32%29.92 "Hg10 mi
8:50 AM81 °FSunny.7 mph37%29.92 "Hg10 mi
8:20 AM77 °FSunny.7 mph44%29.92 "Hg10 mi
7:50 AM75 °FSunny.7 mph47%29.92 "Hg10 mi
7:20 AM73 °FSunny.7 mph47%29.89 "Hg10 mi
6:50 AM73 °FClear.3 mph44%29.89 "Hg10 mi
6:20 AM73 °FClear.8 mph41%29.89 "Hg10 mi
5:50 AM77 °FClear.16 mph28%29.86 "Hg10 mi
5:20 AM81 °FClear.10 mph23%29.83 "Hg10 mi
4:50 AM81 °FClear.10 mph23%29.83 "Hg10 mi
4:20 AM81 °FClear.14 mph23%29.83 "Hg10 mi
3:50 AM81 °FClear.12 mph23%29.83 "Hg10 mi
3:20 AM81 °FClear.9 mph23%29.83 "Hg10 mi
2:50 AM82 °FClear.15 mph23%29.86 "Hg10 mi
2:20 AM82 °FClear.16 mph23%29.83 "Hg10 mi
1:50 AM82 °FClear.15 mph23%29.86 "Hg10 mi
1:20 AM82 °FClear.15 mph23%29.86 "Hg10 mi
12:50 AM82 °FClear.14 mph23%29.86 "Hg10 mi
12:20 AM82 °FClear.16 mph23%29.86 "Hg10 mi
11:50 PM
Apr 18
82 °FClear.17 mph25%29.86 "Hg10 mi
11:20 PM79 °FClear.8 mph28%29.89 "Hg10 mi
10:50 PM77 °FClear.2 mph32%29.89 "Hg10 mi
10:20 PM77 °FClear.3 mph30%29.89 "Hg10 mi
9:50 PM79 °FClear.6 mph30%29.89 "Hg10 mi
9:20 PM79 °FClear.5 mph30%29.89 "Hg10 mi
8:50 PM81 °FClear.7 mph30%29.89 "Hg10 mi
8:20 PM81 °FClear.7 mph30%29.89 "Hg10 mi
7:50 PM82 °FSunny.8 mph28%29.89 "Hg10 mi
7:20 PM84 °FSunny.7 mph27%29.89 "Hg10 mi
6:50 PM86 °FSunny.8 mph25%29.89 "Hg10 mi
6:20 PM88 °FSunny.7 mph24%29.89 "Hg10 mi
5:50 PM91 °FSunny.2 mph21%29.89 "Hg10 mi
5:20 PM93 °FSunny.2 mph20%29.89 "Hg10 mi
4:20 PM88 °FPassing clouds.6 mph24%29.92 "HgN/A
3:50 PM88 °FSunny.6 mph24%29.92 "Hg10 mi
3:20 PM88 °FSunny.7 mph25%29.92 "Hg10 mi
2:50 PM88 °FSunny.9 mph25%29.92 "Hg10 mi
2:20 PM88 °FSunny.5 mph25%29.92 "Hg10 mi
1:50 PM88 °FPassing clouds.7 mph22%29.92 "HgN/A
1:20 PM88 °FSunny.3 mph22%29.92 "Hg10 mi
Weather by CustomWeather, © 2014

See weather overview